Flag for U.S.A. Weather past 2 weeks in Bloomington, Illinois, U.S.A.

Now
33 °F

Sunny.


Feels Like: 26 °F
Forecast: 22 / 30 °F
Wind: 8 mph from Southwest

Location: Bloomington / Normal

Current Time: Jan 30, 2015 at 4:39:53 PM

Latest Report: Jan 30, 2015 at 3:56 PM


Visibility: 10 mi

Pressure: 30.51 "Hg

Humidity: 59%

Dew point: 20 °F

Location of BloomingtonLocation

Historic Weather in Bloomington — Graph

°F

Bloomington temperature yesterday

Maximum temperature yesterday: 40 °F (at 4:56 AM)
Minimum temperature yesterday: 32 °F (at 11:03 PM)
Average temperature yesterday: 35 °F

Past Weeks' High & Low Weather Summary

 TemperatureHumidityPressure
High45 °F (Jan 24, 3:56 PM)100% (Jan 16, 4:56 AM)30.59 "Hg (Jan 16, 4:56 AM)
Low18 °F (Jan 16, 7:56 AM)57% (Jan 30, 1:56 PM)29.63 "Hg (Jan 25, 3:56 AM)
Average33 °F87%30.06 "Hg
* Reported Jan 15 2:56 PM — Jan 30 2:56 PM, Bloomington, Weather by CustomWeather, © 2014

Note: Actual official high and low records may vary slightly from our data, if they occured in-between our weather recording intervals... More about our weather records

Advertising

Bloomington weather history for previous 24 hours

 ConditionsComfort  
Time TempWeatherWind HumidityBarometerVisibility
2:56 PM
Jan 30
33 °FSunny.No wind57%30.51 "Hg10 mi
1:56 PM33 °FPassing clouds.5 mph57%30.53 "Hg10 mi
12:56 PM32 °FPassing clouds.5 mph59%30.54 "Hg10 mi
11:56 AM31 °FScattered clouds.No wind61%30.57 "Hg10 mi
10:56 AM28 °FPassing clouds.3 mph66%30.59 "Hg10 mi
9:56 AM28 °FScattered clouds.8 mph69%30.59 "Hg10 mi
8:56 AM26 °FSunny.10 mph74%30.58 "Hg10 mi
7:56 AM23 °FSunny.10 mph85%30.56 "Hg10 mi
6:56 AM23 °FClear.10 mph81%30.55 "Hg10 mi
5:56 AM23 °FClear.9 mph85%30.53 "Hg10 mi
4:56 AM25 °FClear.10 mph74%30.51 "Hg10 mi
3:56 AM26 °FClear.12 mph74%30.48 "Hg10 mi
2:56 AM27 °FClear.12 mph78%30.47 "Hg10 mi
1:56 AM30 °FPassing clouds.20 mph67%30.45 "Hg10 mi
12:56 AM31 °FOvercast.20 mph72%30.42 "Hg10 mi
11:56 PM
Jan 29
32 °FOvercast.18 mph73%30.40 "Hg10 mi
11:03 PM32 °FOvercast.18 mph80%30.34 "Hg10 mi
10:56 PM33 °FOvercast.18 mph76%30.38 "Hg10 mi
9:56 PM33 °FOvercast.18 mph73%30.36 "Hg10 mi
8:56 PM33 °FPassing clouds.20 mph82%30.35 "Hg10 mi
7:56 PM34 °FMostly cloudy.16 mph82%30.32 "Hg10 mi
6:56 PM34 °FMostly cloudy.16 mph85%30.30 "Hg10 mi
5:56 PM35 °FOvercast.17 mph82%30.27 "Hg10 mi
4:56 PM35 °FMostly cloudy.14 mph89%30.22 "Hg10 mi
Weather by CustomWeather, © 2014

See weather overviewHow to use our weather pages